QPF
0.01 0.02 0.02 0.03 0.03 0.03 0.03 0.03 0.02 0.02 0.02 0.03 0.02 0.01 0.01 0.01 0.01 0.01 0.01 0.00 0.00 0.00 0.00 0.00 0.00 0.00 0.00 0.00 0.00 0.00 0.00 0.00 0.00 0.00 0.00 0.00 0.00 0.00 0.00 0.00 0.00 0.00 0.00
0.02 0.02 0.02 0.02 0.02 0.02 0.02 0.02 0.01 0.01 0.01 0.02 0.02 0.01 0.01 0.01 0.00 0.01 0.01 0.01 0.01 0.01 0.00 0.00 0.00 0.00 0.00 0.00 0.00 0.00 0.00 0.00 0.00 0.00 0.00 0.00 0.00 0.00 0.00 0.00 0.00 0.00 0.00
0.02 0.02 0.02 0.02 0.01 0.02 0.01 0.01 0.01 0.01 0.01 0.01 0.02 0.02 0.01 0.01 0.00 0.00 0.01 0.00 0.00 0.00 0.00 0.00 0.00 0.00 0.00 0.00 0.00 0.00 0.00 0.00 0.00 0.00 0.00 0.00 0.00 0.00 0.00 0.00 0.00 0.00 0.00
0.01 0.01 0.02 0.02 0.01 0.01 0.01 0.02 0.02 0.02 0.01 0.01 0.01 0.02 0.01 0.01 0.00 0.00 0.00 0.00 0.00 0.00 0.00 0.00 0.00 0.00 0.00 0.00 0.00 0.00 0.00 0.00 0.00 0.00 0.00 0.00 0.00 0.00 0.00 0.00 0.00 0.00 0.00
0.01 0.01 0.01 0.01 0.02 0.01 0.01 0.02 0.02 0.02 0.01 0.01 0.01 0.01 0.01 0.01 0.01 0.00 0.00 0.00 0.00 0.00 0.00 0.00 0.00 0.00 0.00 0.00 0.00 0.00 0.00 0.00 0.00 0.00 0.00 0.00 0.00 0.00 0.00 0.00 0.00 0.00 0.00
0.01 0.01 0.01 0.01 0.02 0.02 0.02 0.02 0.02 0.02 0.01 0.01 0.01 0.01 0.01 0.01 0.01 0.01 0.00 0.00 0.00 0.00 0.00 0.00 0.00 0.00 0.00 0.00 0.00 0.00 0.00 0.00 0.00 0.00 0.00 0.00 0.00 0.00 0.00 0.00 0.00 0.00 0.00
0.01 0.01 0.01 0.01 0.01 0.01 0.01 0.01 0.01 0.01 0.01 0.01 0.01 0.01 0.01 0.01 0.01 0.01 0.01 0.00 0.00 0.00 0.00 0.00 0.00 0.00 0.00 0.00 0.00 0.00 0.00 0.00 0.00 0.01 0.01 0.00 0.00 0.00 0.00 0.00 0.01 0.01 0.01
0.01 0.01 0.01 0.01 0.01 0.01 0.01 0.01 0.01 0.01 0.01 0.00 0.00 0.00 0.00 0.01 0.01 0.01 0.00 0.00 0.00 0.00 0.00 0.00 0.00 0.00 0.00 0.00 0.00 0.00 0.00 0.00 0.00 0.00 0.00 0.00 0.00 0.00 0.00 0.00 0.00 0.00 0.00
0.01 0.01 0.01 0.01 0.01 0.01 0.01 0.01 0.01 0.01 0.00 0.00 0.00 0.00 0.00 0.00 0.00 0.00 0.00 0.00 0.00 0.00 0.00 0.00 0.00 0.00 0.00 0.00 0.00 0.01 0.00 0.00 0.00 0.01 0.01 0.01 0.01 0.01 0.01 0.01 0.01 0.01 0.01
0.00 0.00 0.00 0.01 0.01 0.01 0.01 0.01 0.01 0.00 0.00 0.00 0.00 0.00 0.00 0.00 0.00 0.00 0.00 0.00 0.00 0.00 0.00 0.00 0.00 0.00 0.00 0.00 0.01 0.01 0.01 0.00 0.01 0.01 0.01 0.01 0.01 0.01 0.01 0.01 0.01 0.01 0.01
0.00 0.00 0.00 0.00 0.01 0.01 0.01 0.01 0.01 0.00 0.00 0.00 0.00 0.00 0.00 0.00 0.00 0.00 0.00 0.00 0.00 0.00 0.00 0.00 0.00 0.00 0.00 0.01 0.01 0.01 0.01 0.01 0.01 0.01 0.01 0.01 0.01 0.01 0.01 0.01 0.01 0.00 0.01
0.00 0.00 0.00 0.00 0.00 0.00 0.00 0.00 0.00 0.00 0.00 0.00 0.00 0.00 0.00 0.00 0.00 0.00 0.00 0.00 0.00 0.00 0.00 0.00 0.00 0.01 0.01 0.01 0.01 0.01 0.01 0.01 0.01 0.01 0.01 0.01 0.00 0.01 0.01 0.01 0.01 0.01 0.00
0.00 0.00 0.00 0.00 0.00 0.00 0.00 0.00 0.00 0.00 0.00 0.00 0.00 0.00 0.00 0.00 0.00 0.00 0.00 0.00 0.00 0.00 0.00 0.01 0.01 0.01 0.01 0.01 0.01 0.01 0.01 0.01 0.01 0.01 0.01 0.01 0.00 0.00 0.01 0.01 0.01 0.01 0.01
0.00 0.00 0.00 0.00 0.00 0.00 0.00 0.00 0.00 0.00 0.00 0.00 0.00 0.00 0.00 0.00 0.00 0.00 0.00 0.00 0.00 0.01 0.01 0.01 0.01 0.01 0.01 0.01 0.01 0.01 0.01 0.01 0.01 0.01 0.01 0.01 0.01 0.01 0.01 0.01 0.01 0.01 0.01
0.00 0.00 0.00 0.00 0.00 0.00 0.00 0.00 0.00 0.00 0.00 0.00 0.00 0.00 0.00 0.00 0.00 0.00 0.01 0.01 0.01 0.01 0.02 0.02 0.02 0.02 0.01 0.01 0.01 0.01 0.01 0.01 0.01 0.01 0.01 0.01 0.01 0.01 0.01 0.01 0.01 0.02 0.01
0.00 0.00 0.00 0.00 0.00 0.00 0.00 0.00 0.00 0.00 0.00 0.00 0.00 0.00 0.00 0.00 0.00 0.01 0.01 0.01 0.02 0.02 0.03 0.03 0.02 0.01 0.01 0.01 0.01 0.01 0.01 0.01 0.01 0.02 0.02 0.01 0.01 0.01 0.01 0.01 0.01 0.02 0.01
0.00 0.00 0.00 0.00 0.00 0.00 0.00 0.00 0.00 0.00 0.00 0.00 0.00 0.00 0.00 0.00 0.01 0.01 0.01 0.02 0.02 0.03 0.03 0.02 0.02 0.02 0.01 0.01 0.01 0.02 0.02 0.01 0.01 0.02 0.02 0.01 0.01 0.02 0.02 0.02 0.01 0.01 0.01
0.00 0.00 0.00 0.00 0.00 0.00 0.00 0.00 0.00 0.00 0.00 0.00 0.00 0.00 0.00 0.00 0.01 0.01 0.01 0.02 0.02 0.02 0.02 0.02 0.02 0.02 0.02 0.01 0.02 0.02 0.02 0.02 0.01 0.01 0.01 0.01 0.01 0.02 0.02 0.02 0.01 0.01 0.01
0.00 0.00 0.00 0.00 0.00 0.00 0.00 0.00 0.00 0.00 0.00 0.00 0.00 0.00 0.00 0.00 0.01 0.01 0.01 0.02 0.02 0.02 0.02 0.02 0.02 0.02 0.02 0.02 0.02 0.02 0.02 0.02 0.01 0.01 0.01 0.01 0.01 0.02 0.02 0.01 0.01 0.01 0.01
0.00 0.00 0.00 0.00 0.00 0.00 0.00 0.00 0.00 0.00 0.00 0.00 0.00 0.00 0.00 0.00 0.01 0.01 0.01 0.02 0.02 0.02 0.02 0.02 0.01 0.01 0.02 0.02 0.02 0.02 0.02 0.02 0.02 0.02 0.02 0.01 0.01 0.02 0.02 0.01 0.01 0.01 0.01
0.00 0.00 0.00 0.00 0.00 0.00 0.00 0.00 0.00 0.00 0.01 0.00 0.00 0.00 0.01 0.01 0.01 0.01 0.01 0.01 0.01 0.01 0.01 0.01 0.01 0.01 0.01 0.02 0.02 0.02 0.02 0.02 0.02 0.02 0.02 0.02 0.02 0.02 0.01 0.01 0.01 0.01 0.01
0.00 0.00 0.00 0.00 0.00 0.00 0.00 0.01 0.01 0.01 0.01 0.01 0.00 0.00 0.01 0.01 0.01 0.01 0.01 0.01 0.01 0.01 0.01 0.01 0.01 0.01 0.01 0.02 0.02 0.02 0.02 0.02 0.02 0.02 0.02 0.02 0.02 0.01 0.01 0.01 0.01 0.01 0.01
0.00 0.00 0.00 0.00 0.00 0.01 0.01 0.01 0.01 0.01 0.01 0.01 0.01 0.01 0.01 0.01 0.01 0.01 0.01 0.01 0.01 0.01 0.01 0.01 0.01 0.01 0.01 0.02 0.02 0.02 0.02 0.02 0.02 0.02 0.02 0.01 0.01 0.01 0.01 0.01 0.01 0.01 0.01
0.00 0.00 0.00 0.01 0.01 0.01 0.01 0.01 0.01 0.01 0.01 0.01 0.01 0.01 0.01 0.01 0.01 0.01 0.01 0.01 0.01 0.01 0.01 0.01 0.01 0.01 0.01 0.02 0.02 0.02 0.02 0.02 0.02 0.02 0.01 0.01 0.01 0.01 0.01 0.01 0.01 0.01 0.01
0.00 0.00 0.01 0.01 0.01 0.01 0.01 0.01 0.01 0.01 0.01 0.01 0.01 0.01 0.01 0.01 0.01 0.01 0.01 0.01 0.01 0.01 0.01 0.01 0.01 0.01 0.01 0.01 0.01 0.01 0.01 0.01 0.01 0.01 0.02 0.02 0.02 0.01 0.01 0.01 0.01 0.01 0.01
0.00 0.00 0.01 0.01 0.01 0.01 0.01 0.01 0.01 0.01 0.01 0.01 0.01 0.01 0.01 0.01 0.01 0.01 0.01 0.01 0.01 0.01 0.01 0.01 0.01 0.01 0.01 0.01 0.01 0.01 0.01 0.01 0.01 0.01 0.02 0.02 0.02 0.01 0.01 0.01 0.01 0.01 0.01
MSLP
1019.12 1019.17 1019.20 1019.21 1019.19 1019.16 1019.12 1019.07 1019.02 1018.97 1018.93 1018.89 1018.84 1018.78 1018.71 1018.63 1018.54 1018.45 1018.37 1018.31 1018.27 1018.27 1018.28 1018.30 1018.31 1018.30 1018.25 1018.15 1018.01 1017.82 1017.62 1017.41 1017.23 1017.10 1017.01 1016.99 1017.02 1017.08 1017.15 1017.21 1017.23 1017.20 1017.12
1019.12 1019.14 1019.13 1019.11 1019.08 1019.02 1018.96 1018.90 1018.84 1018.78 1018.72 1018.66 1018.58 1018.48 1018.37 1018.23 1018.08 1017.92 1017.78 1017.65 1017.55 1017.49 1017.46 1017.46 1017.47 1017.47 1017.46 1017.41 1017.32 1017.20 1017.05 1016.89 1016.74 1016.63 1016.55 1016.52 1016.53 1016.56 1016.61 1016.65 1016.66 1016.62 1016.53
1019.19 1019.18 1019.15 1019.10 1019.04 1018.97 1018.89 1018.81 1018.73 1018.65 1018.57 1018.48 1018.37 1018.23 1018.07 1017.88 1017.67 1017.45 1017.22 1017.02 1016.84 1016.71 1016.62 1016.58 1016.56 1016.56 1016.56 1016.55 1016.51 1016.44 1016.35 1016.25 1016.14 1016.06 1016.00 1015.98 1015.99 1016.01 1016.05 1016.08 1016.07 1016.02 1015.92
1019.33 1019.30 1019.25 1019.18 1019.09 1018.99 1018.89 1018.78 1018.68 1018.57 1018.46 1018.33 1018.19 1018.02 1017.81 1017.58 1017.31 1017.02 1016.72 1016.44 1016.19 1015.98 1015.82 1015.72 1015.66 1015.63 1015.63 1015.62 1015.61 1015.59 1015.54 1015.49 1015.44 1015.39 1015.36 1015.36 1015.38 1015.41 1015.44 1015.47 1015.46 1015.41 1015.31
1019.53 1019.49 1019.42 1019.33 1019.21 1019.09 1018.95 1018.81 1018.66 1018.52 1018.37 1018.20 1018.02 1017.81 1017.56 1017.28 1016.96 1016.62 1016.27 1015.92 1015.59 1015.31 1015.07 1014.90 1014.78 1014.71 1014.68 1014.67 1014.67 1014.67 1014.66 1014.65 1014.64 1014.63 1014.63 1014.66 1014.69 1014.74 1014.78 1014.81 1014.81 1014.77 1014.68
1019.76 1019.71 1019.63 1019.51 1019.37 1019.21 1019.04 1018.85 1018.66 1018.47 1018.27 1018.06 1017.83 1017.57 1017.29 1016.96 1016.60 1016.22 1015.81 1015.40 1015.02 1014.66 1014.36 1014.11 1013.93 1013.80 1013.73 1013.70 1013.69 1013.70 1013.72 1013.73 1013.76 1013.79 1013.82 1013.87 1013.93 1014.00 1014.06 1014.11 1014.13 1014.11 1014.04
1019.96 1019.91 1019.81 1019.68 1019.51 1019.32 1019.10 1018.87 1018.63 1018.38 1018.12 1017.86 1017.58 1017.28 1016.95 1016.59 1016.19 1015.77 1015.32 1014.87 1014.43 1014.01 1013.64 1013.33 1013.08 1012.90 1012.78 1012.71 1012.69 1012.70 1012.73 1012.77 1012.82 1012.88 1012.95 1013.03 1013.11 1013.20 1013.29 1013.36 1013.41 1013.43 1013.40
1020.08 1020.02 1019.91 1019.76 1019.57 1019.35 1019.09 1018.82 1018.52 1018.22 1017.90 1017.58 1017.25 1016.90 1016.52 1016.13 1015.70 1015.24 1014.76 1014.27 1013.79 1013.32 1012.89 1012.52 1012.22 1011.98 1011.82 1011.72 1011.68 1011.68 1011.72 1011.79 1011.87 1011.96 1012.05 1012.16 1012.27 1012.39 1012.50 1012.60 1012.68 1012.74 1012.76
1020.08 1020.01 1019.89 1019.73 1019.52 1019.27 1018.98 1018.67 1018.32 1017.97 1017.60 1017.22 1016.83 1016.43 1016.02 1015.59 1015.13 1014.64 1014.13 1013.61 1013.09 1012.58 1012.11 1011.69 1011.33 1011.05 1010.85 1010.72 1010.67 1010.68 1010.73 1010.81 1010.92 1011.04 1011.17 1011.31 1011.44 1011.58 1011.72 1011.84 1011.96 1012.05 1012.12
1019.94 1019.85 1019.72 1019.55 1019.33 1019.07 1018.76 1018.41 1018.03 1017.63 1017.21 1016.79 1016.35 1015.91 1015.46 1014.99 1014.50 1013.99 1013.46 1012.91 1012.36 1011.82 1011.31 1010.84 1010.44 1010.13 1009.90 1009.75 1009.69 1009.70 1009.77 1009.88 1010.02 1010.17 1010.33 1010.50 1010.66 1010.82 1010.98 1011.12 1011.26 1011.39 1011.49
1019.67 1019.56 1019.42 1019.24 1019.01 1018.74 1018.42 1018.06 1017.66 1017.22 1016.77 1016.30 1015.83 1015.35 1014.87 1014.37 1013.86 1013.33 1012.78 1012.21 1011.63 1011.06 1010.52 1010.03 1009.60 1009.25 1009.00 1008.84 1008.77 1008.79 1008.88 1009.01 1009.18 1009.36 1009.56 1009.75 1009.93 1010.11 1010.28 1010.45 1010.61 1010.75 1010.88
1019.29 1019.16 1019.01 1018.83 1018.60 1018.33 1018.00 1017.63 1017.22 1016.77 1016.29 1015.80 1015.30 1014.80 1014.29 1013.77 1013.24 1012.70 1012.13 1011.55 1010.95 1010.36 1009.80 1009.28 1008.82 1008.45 1008.17 1008.00 1007.93 1007.95 1008.05 1008.20 1008.40 1008.61 1008.83 1009.05 1009.25 1009.45 1009.64 1009.81 1009.98 1010.14 1010.29
1018.85 1018.70 1018.54 1018.35 1018.12 1017.85 1017.53 1017.16 1016.73 1016.28 1015.79 1015.28 1014.77 1014.25 1013.73 1013.20 1012.67 1012.12 1011.54 1010.95 1010.35 1009.75 1009.16 1008.62 1008.14 1007.74 1007.44 1007.25 1007.17 1007.18 1007.28 1007.44 1007.65 1007.88 1008.13 1008.36 1008.59 1008.80 1009.00 1009.19 1009.37 1009.54 1009.70
1018.39 1018.22 1018.04 1017.84 1017.61 1017.34 1017.02 1016.64 1016.22 1015.76 1015.27 1014.75 1014.23 1013.71 1013.19 1012.67 1012.13 1011.58 1011.02 1010.43 1009.82 1009.21 1008.62 1008.06 1007.55 1007.13 1006.80 1006.57 1006.46 1006.46 1006.54 1006.69 1006.90 1007.14 1007.40 1007.65 1007.90 1008.13 1008.35 1008.56 1008.75 1008.93 1009.10
1017.93 1017.74 1017.54 1017.33 1017.09 1016.81 1016.48 1016.11 1015.68 1015.21 1014.71 1014.20 1013.68 1013.16 1012.64 1012.13 1011.60 1011.07 1010.52 1009.94 1009.34 1008.73 1008.13 1007.55 1007.02 1006.57 1006.20 1005.94 1005.79 1005.74 1005.79 1005.92 1006.12 1006.35 1006.61 1006.88 1007.15 1007.41 1007.65 1007.89 1008.11 1008.31 1008.50
1017.48 1017.27 1017.05 1016.83 1016.57 1016.27 1015.93 1015.53 1015.09 1014.61 1014.11 1013.59 1013.08 1012.56 1012.05 1011.55 1011.05 1010.53 1010.00 1009.44 1008.85 1008.25 1007.65 1007.06 1006.51 1006.02 1005.61 1005.31 1005.11 1005.01 1005.02 1005.11 1005.27 1005.50 1005.76 1006.04 1006.32 1006.62 1006.90 1007.18 1007.44 1007.68 1007.89
1017.03 1016.80 1016.57 1016.32 1016.04 1015.71 1015.34 1014.92 1014.46 1013.97 1013.45 1012.92 1012.40 1011.89 1011.40 1010.91 1010.42 1009.93 1009.42 1008.88 1008.31 1007.72 1007.12 1006.53 1005.97 1005.45 1005.00 1004.65 1004.40 1004.25 1004.20 1004.25 1004.39 1004.59 1004.84 1005.14 1005.45 1005.78 1006.11 1006.44 1006.75 1007.04 1007.30
1016.56 1016.32 1016.06 1015.79 1015.48 1015.12 1014.72 1014.27 1013.78 1013.26 1012.73 1012.19 1011.66 1011.16 1010.67 1010.19 1009.72 1009.25 1008.76 1008.24 1007.70 1007.12 1006.53 1005.94 1005.37 1004.83 1004.36 1003.96 1003.67 1003.47 1003.38 1003.39 1003.49 1003.68 1003.93 1004.24 1004.58 1004.95 1005.33 1005.72 1006.08 1006.43 1006.73
1016.04 1015.79 1015.52 1015.22 1014.88 1014.49 1014.06 1013.57 1013.05 1012.51 1011.95 1011.40 1010.87 1010.36 1009.87 1009.40 1008.95 1008.49 1008.02 1007.52 1007.00 1006.44 1005.87 1005.29 1004.72 1004.17 1003.68 1003.27 1002.95 1002.72 1002.60 1002.58 1002.66 1002.83 1003.08 1003.40 1003.77 1004.18 1004.61 1005.05 1005.47 1005.86 1006.20
1015.45 1015.20 1014.91 1014.60 1014.23 1013.82 1013.35 1012.84 1012.29 1011.72 1011.14 1010.58 1010.04 1009.52 1009.04 1008.58 1008.13 1007.68 1007.23 1006.75 1006.24 1005.71 1005.15 1004.59 1004.03 1003.50 1003.02 1002.60 1002.27 1002.03 1001.90 1001.87 1001.95 1002.11 1002.37 1002.70 1003.10 1003.53 1004.00 1004.47 1004.93 1005.35 1005.72
1014.79 1014.53 1014.25 1013.92 1013.53 1013.09 1012.60 1012.07 1011.50 1010.91 1010.32 1009.75 1009.20 1008.68 1008.20 1007.74 1007.30 1006.86 1006.41 1005.95 1005.46 1004.95 1004.42 1003.88 1003.35 1002.85 1002.39 1002.00 1001.68 1001.46 1001.34 1001.32 1001.40 1001.57 1001.84 1002.18 1002.59 1003.04 1003.52 1004.00 1004.47 1004.90 1005.28
1014.06 1013.81 1013.52 1013.17 1012.78 1012.32 1011.81 1011.26 1010.68 1010.08 1009.49 1008.92 1008.37 1007.86 1007.38 1006.92 1006.48 1006.05 1005.61 1005.16 1004.69 1004.20 1003.70 1003.20 1002.70 1002.24 1001.83 1001.48 1001.20 1001.02 1000.93 1000.93 1001.04 1001.23 1001.50 1001.85 1002.25 1002.70 1003.16 1003.64 1004.09 1004.50 1004.85
1013.27 1013.01 1012.72 1012.37 1011.96 1011.50 1010.98 1010.42 1009.84 1009.24 1008.65 1008.09 1007.55 1007.04 1006.57 1006.12 1005.69 1005.27 1004.84 1004.40 1003.95 1003.49 1003.02 1002.56 1002.11 1001.70 1001.35 1001.06 1000.84 1000.71 1000.66 1000.71 1000.84 1001.05 1001.33 1001.67 1002.06 1002.48 1002.91 1003.34 1003.75 1004.12 1004.41
1012.42 1012.17 1011.87 1011.51 1011.10 1010.62 1010.10 1009.53 1008.95 1008.36 1007.79 1007.24 1006.71 1006.23 1005.77 1005.34 1004.92 1004.51 1004.10 1003.68 1003.25 1002.82 1002.39 1001.97 1001.58 1001.24 1000.94 1000.72 1000.57 1000.50 1000.51 1000.60 1000.76 1000.99 1001.27 1001.60 1001.96 1002.33 1002.71 1003.08 1003.42 1003.72 1003.94
1011.55 1011.29 1010.98 1010.61 1010.18 1009.69 1009.16 1008.60 1008.02 1007.44 1006.88 1006.35 1005.85 1005.39 1004.95 1004.54 1004.15 1003.76 1003.37 1002.98 1002.58 1002.19 1001.80 1001.44 1001.11 1000.83 1000.61 1000.45 1000.37 1000.36 1000.43 1000.55 1000.74 1000.98 1001.25 1001.56 1001.88 1002.20 1002.52 1002.81 1003.07 1003.28 1003.42
1010.67 1010.39 1010.06 1009.67 1009.23 1008.73 1008.19 1007.62 1007.05 1006.48 1005.94 1005.43 1004.95 1004.52 1004.11 1003.73 1003.37 1003.01 1002.66 1002.31 1001.96 1001.61 1001.28 1000.97 1000.71 1000.49 1000.33 1000.24 1000.22 1000.26 1000.37 1000.53 1000.73 1000.97 1001.23 1001.50 1001.77 1002.04 1002.28 1002.50 1002.67 1002.80 1002.86
Thickness
5550 5549 5548 5546 5544 5543 5541 5540 5539 5537 5535 5534 5531 5529 5527 5525 5522 5518 5515 5512 5509 5506 5502 5499 5495 5491 5487 5483 5479 5476 5472 5469 5471 5473 5468 5463 5459 5456 5454 5452 5451 5450 5451
5542 5540 5539 5538 5536 5535 5533 5532 5530 5529 5527 5524 5521 5520 5517 5514 5512 5509 5506 5502 5499 5496 5492 5489 5485 5480 5476 5472 5468 5465 5461 5457 5456 5458 5456 5451 5447 5443 5440 5439 5437 5437 5437
5533 5532 5531 5530 5528 5527 5525 5523 5521 5519 5517 5514 5511 5510 5507 5504 5501 5498 5495 5492 5489 5485 5481 5478 5475 5470 5467 5462 5457 5453 5449 5445 5442 5441 5441 5437 5433 5429 5426 5425 5425 5424 5424
5524 5523 5522 5521 5519 5518 5516 5513 5511 5508 5506 5504 5501 5499 5496 5493 5490 5486 5483 5480 5477 5474 5470 5466 5463 5459 5455 5450 5446 5442 5437 5433 5430 5427 5426 5423 5420 5416 5413 5413 5413 5413 5412
5516 5514 5513 5511 5509 5507 5505 5503 5500 5497 5495 5493 5490 5488 5485 5481 5478 5475 5471 5468 5465 5463 5459 5455 5451 5446 5442 5437 5433 5430 5424 5421 5417 5414 5412 5410 5408 5404 5401 5400 5399 5400 5400
5507 5505 5503 5500 5498 5496 5494 5492 5490 5487 5484 5482 5479 5476 5473 5470 5465 5461 5458 5456 5454 5451 5448 5444 5439 5434 5429 5424 5420 5415 5411 5408 5405 5402 5400 5399 5397 5393 5389 5387 5386 5386 5389
5498 5495 5492 5490 5488 5486 5483 5481 5478 5476 5473 5470 5467 5464 5461 5458 5452 5448 5445 5442 5441 5439 5435 5432 5428 5423 5417 5413 5409 5404 5400 5395 5391 5389 5388 5387 5384 5380 5377 5375 5374 5374 5375
5487 5485 5482 5479 5477 5474 5471 5468 5466 5463 5460 5458 5454 5451 5448 5445 5440 5436 5432 5429 5428 5426 5422 5418 5415 5411 5406 5401 5398 5394 5391 5387 5382 5378 5376 5374 5371 5367 5364 5363 5362 5362 5363
5477 5474 5471 5468 5465 5462 5459 5457 5454 5451 5448 5445 5441 5438 5435 5433 5428 5423 5418 5417 5416 5414 5410 5406 5402 5399 5396 5389 5385 5383 5381 5377 5372 5368 5365 5362 5359 5356 5353 5351 5351 5351 5353
5467 5463 5459 5455 5452 5450 5447 5444 5440 5437 5434 5431 5428 5425 5422 5420 5416 5411 5405 5404 5403 5402 5399 5395 5390 5386 5383 5378 5374 5372 5370 5368 5362 5359 5356 5353 5350 5348 5345 5342 5341 5340 5341
5455 5451 5447 5444 5440 5437 5434 5431 5427 5424 5421 5418 5416 5414 5411 5408 5404 5398 5393 5389 5388 5388 5386 5384 5380 5375 5371 5367 5363 5361 5359 5355 5352 5349 5347 5344 5342 5339 5337 5335 5333 5331 5331
5443 5439 5436 5432 5428 5424 5422 5419 5415 5411 5408 5406 5404 5403 5400 5396 5391 5386 5381 5377 5374 5373 5373 5371 5368 5363 5359 5356 5354 5351 5347 5343 5341 5339 5337 5335 5333 5331 5328 5326 5324 5322 5321
5432 5428 5425 5421 5417 5413 5409 5406 5403 5399 5396 5394 5391 5390 5389 5385 5379 5374 5369 5366 5362 5360 5360 5358 5355 5351 5348 5346 5343 5340 5336 5334 5332 5330 5329 5327 5324 5321 5319 5316 5314 5312 5311
5421 5417 5413 5409 5406 5402 5397 5393 5390 5387 5384 5381 5379 5377 5375 5373 5368 5363 5359 5356 5352 5349 5347 5345 5343 5340 5337 5334 5332 5329 5327 5325 5322 5321 5320 5318 5315 5312 5310 5308 5306 5304 5304
5409 5405 5401 5397 5394 5391 5387 5383 5379 5376 5371 5368 5366 5363 5360 5360 5358 5351 5346 5344 5341 5338 5335 5333 5332 5330 5327 5324 5322 5319 5317 5314 5312 5311 5309 5308 5306 5304 5302 5299 5297 5296 5296
5397 5394 5390 5386 5382 5378 5375 5373 5370 5364 5360 5355 5352 5348 5348 5345 5343 5340 5336 5333 5330 5326 5323 5324 5323 5321 5318 5315 5312 5310 5308 5305 5303 5301 5300 5299 5297 5296 5294 5292 5289 5289 5289
5385 5381 5377 5373 5370 5366 5362 5360 5359 5357 5351 5347 5343 5339 5336 5335 5332 5330 5327 5324 5322 5318 5316 5315 5314 5311 5308 5305 5303 5300 5298 5296 5294 5292 5292 5291 5289 5288 5286 5285 5283 5283 5282
5372 5368 5364 5361 5358 5354 5351 5347 5344 5342 5342 5341 5337 5331 5328 5325 5323 5321 5318 5315 5314 5312 5309 5307 5305 5302 5299 5296 5294 5292 5290 5288 5286 5285 5284 5283 5282 5281 5280 5279 5278 5276 5276
5361 5358 5353 5350 5346 5342 5338 5335 5332 5329 5328 5328 5327 5324 5320 5317 5314 5312 5308 5306 5306 5304 5301 5298 5296 5293 5291 5288 5286 5284 5282 5281 5280 5279 5278 5276 5275 5274 5274 5273 5272 5271 5269
5351 5346 5341 5338 5335 5331 5328 5324 5322 5320 5318 5317 5316 5314 5311 5308 5306 5304 5301 5298 5296 5294 5292 5290 5288 5285 5283 5281 5279 5278 5276 5275 5273 5272 5272 5271 5270 5269 5268 5267 5266 5265 5264
5340 5337 5331 5328 5325 5322 5319 5316 5313 5311 5309 5308 5307 5305 5300 5298 5297 5295 5293 5290 5288 5286 5284 5283 5280 5278 5276 5275 5273 5272 5271 5270 5268 5267 5266 5266 5265 5264 5263 5262 5261 5259 5258
5329 5326 5323 5320 5316 5313 5310 5308 5305 5302 5301 5299 5298 5296 5293 5290 5289 5287 5285 5283 5281 5279 5277 5275 5274 5273 5271 5269 5268 5267 5266 5265 5264 5263 5262 5261 5260 5259 5258 5257 5255 5254 5252
5320 5317 5314 5311 5308 5305 5302 5300 5297 5295 5293 5292 5290 5288 5285 5283 5282 5280 5278 5276 5274 5273 5271 5269 5268 5268 5266 5265 5263 5262 5262 5261 5260 5259 5258 5257 5255 5255 5254 5252 5251 5249 5248
5311 5308 5306 5303 5300 5297 5295 5293 5290 5288 5286 5284 5282 5280 5279 5277 5276 5274 5272 5270 5268 5267 5266 5265 5264 5263 5262 5261 5260 5259 5258 5258 5256 5255 5254 5253 5252 5250 5249 5248 5247 5246 5244
5304 5301 5298 5296 5293 5291 5289 5287 5285 5282 5280 5278 5276 5274 5272 5271 5270 5268 5266 5265 5263 5262 5261 5260 5260 5259 5258 5257 5256 5256 5255 5254 5253 5252 5250 5249 5248 5247 5245 5244 5243 5242 5240
5297 5294 5292 5289 5286 5284 5282 5281 5279 5277 5274 5272 5270 5268 5267 5265 5264 5263 5261 5260 5259 5258 5258 5257 5256 5256 5255 5254 5254 5253 5252 5252 5250 5249 5247 5246 5245 5244 5242 5241 5239 5238 5237